彩虹 24星 (RADUGA 24)

导读

RADUGA 24(“虹”24号)是苏联解体后独立国家联合体(CIS)继承的俄罗斯“虹”(Raduga)系列固定通信卫星,于1989年12月15日发射入轨。该卫星隶属俄罗斯经典通信卫星体系,主要为俄罗斯及周边区域提供语音通信、数据传输与电视广播服务,在高纬度地区通信保障、军事与航运通信领域发挥支撑作用,是冷战末期苏联航天通信网络建设的重要组成部分。

Basic Information
目录编号:
20367
目录名称:
RADUGA 24
国际标识:
1989-098A
轨道中心:
EARTH
卫星名称:
彩虹 24星
卫星全名:
彩虹 24星 (RADUGA 24)
卫星状态:
在轨 (已飞行13329 天)
发射日期:
1989-12-15 UTC
国别 :
俄罗斯(独联体) (CIS)
星等 :
--
Orbit Information
数据来源 国际轨道数据 AOE轨道数据
星历时间 2026-06-12T06:17:57+0800
1天前
查看轨道信息
2026-06-13T01:00:00+0800
10小时前
查看轨道信息
半长轴 42163.495km 42163.018km
偏心率 0.0002896 0.0002941
轨道倾角 12.510° 12.509°
近地点辐角 299.505° 297.542°
升交点赤经 333.836° 333.832°
平近点角 66.506° 349.772°
近地点 35773.147km 35772.48km
远地点 35797.569km 35797.282km
周期 1436.034分钟 1436.009分钟
每日圈数 1.002762 1.002779
Detailed Information
平衡模式:
三轴稳定
覆盖范围:
全球
运营商:
俄罗斯国家航天集团
运营商所在国:
俄罗斯
制造商(研发单位):
普里克拉德诺伊·梅哈尼基设计局
制造商所在国:
俄罗斯联邦
使用方式:
暂无
Satellite Introduction
彩虹卫星(Raduga, Gran)是苏联用于军事和通信目的的一系列地球静止通信卫星。彩虹卫星旨在支持军事通信、Orbita地面电视网络,并在整个东半球(极地地区除外)提供电话和电报通信。该卫星已退役。
2D Orbit Map
3D Orbit Map
Orbit Altitude Analysis Chart
Orbit Inclination Analysis Chart
Orbit Comprehensive Analysis Chart
View Comprehensive Chart